| time (UTC) | temp F | wind direction | speed MPH | gust MPH | rain 1hr in | rain 24hr in | rain mn in | humidity % | barometer mb |
| 20260510155849 | 58 | 308 | 2.0 | 2.0 | 0.00 | 0.02 | 0.02 | 95 | 1030.2 |
| 20260510154345 | 58 | 205 | 0.0 | 1.0 | 0.00 | 0.02 | 0.02 | 95 | 1030.4 |
| 20260510152844 | 59 | 233 | 2.0 | 2.0 | 0.00 | 0.02 | 0.02 | 96 | 1030.7 |
| 20260510151341 | 59 | 285 | 0.0 | 0.0 | 0.00 | 0.02 | 0.02 | 96 | 1031.0 |
| 20260510145841 | 59 | 244 | 1.0 | 1.0 | 0.00 | 0.02 | 0.02 | 96 | 1030.9 |
| 20260510144336 | 59 | 285 | 0.0 | 0.0 | 0.00 | 0.02 | 0.02 | 96 | 1031.1 |
| 20260510142836 | 59 | 293 | 0.0 | 0.0 | 0.05 | 0.02 | 0.02 | 95 | 1030.7 |
| 20260510141333 | 58 | 293 | 0.0 | 0.0 | 0.00 | 0.01 | 0.01 | 95 | 1030.9 |
| 20260510135830 | 58 | 293 | 0.0 | 1.0 | 0.00 | 0.01 | 0.01 | 95 | 1030.9 |
| 20260510134327 | 58 | 279 | 2.0 | 2.0 | 0.07 | 0.01 | 0.01 | 95 | 1030.9 |
| 20260510132827 | 58 | 295 | 0.0 | 0.0 | 0.00 | 0.00 | 0.00 | 94 | 1030.8 |
| 20260510131325 | 58 | 281 | 0.0 | 0.0 | 0.00 | 0.00 | 0.00 | 93 | 1031.0 |
| 20260510125821 | 58 | 277 | 1.0 | 2.0 | 0.00 | 0.00 | 0.00 | 92 | 1031.0 |
| 20260510124317 | 59 | 276 | 1.0 | 1.0 | 0.00 | 0.00 | 0.00 | 89 | 1031.1 |
| 20260510122817 | 58 | 264 | 1.0 | 1.0 | 0.00 | 0.00 | 0.00 | 89 | 1031.0 |
| 20260510121314 | 58 | 269 | 1.0 | 1.0 | 0.00 | 0.00 | 0.00 | 88 | 1031.1 |
| 20260510115808 | 59 | 204 | 2.0 | 2.0 | 0.00 | 0.00 | 0.00 | 87 | 1030.9 |
| 20260510114305 | 59 | 286 | 1.0 | 1.0 | 0.00 | 0.00 | 0.00 | 87 | 1030.9 |
| 20260510112804 | 59 | 240 | 1.0 | 1.0 | 0.00 | 0.00 | 0.00 | 88 | 1030.9 |
| 20260510111300 | 58 | 265 | 0.0 | 0.0 | 0.00 | 0.00 | 0.00 | 89 | 1030.7 |
| 20260510105758 | 58 | 211 | 1.0 | 1.0 | 0.00 | 0.00 | 0.00 | 88 | 1031.0 |
| 20260510104253 | 58 | 273 | 1.0 | 1.0 | 0.00 | 0.00 | 0.00 | 89 | 1031.0 |
| 20260510102751 | 58 | 279 | 1.0 | 2.0 | 0.00 | 0.00 | 0.00 | 89 | 1030.7 |
| 20260510101249 | 57 | 271 | 1.0 | 1.0 | 0.00 | 0.00 | 0.00 | 89 | 1030.8 |
| 20260510095749 | 58 | 207 | 2.0 | 3.0 | 0.00 | 0.00 | 0.00 | 89 | 1030.6 |
| 20260510094245 | 59 | 250 | 2.0 | 2.0 | 0.00 | 0.00 | 0.00 | 89 | 1030.3 |
| 20260510092741 | 58 | 281 | 0.0 | 1.0 | 0.00 | 0.00 | 0.00 | 88 | 1030.3 |
| 20260510091236 | 59 | 246 | 1.0 | 2.0 | 0.00 | 0.00 | 0.00 | 88 | 1030.2 |
| 20260510085736 | 59 | 277 | 0.0 | 1.0 | 0.00 | 0.00 | 0.00 | 87 | 1030.1 |
| 20260510084236 | 59 | 295 | 0.0 | 0.0 | 0.00 | 0.00 | 0.00 | 87 | 1029.9 |
| 20260510082731 | 59 | 291 | 0.0 | 0.0 | 0.00 | 0.00 | 0.00 | 86 | 1029.9 |
| 20260510081229 | 59 | 281 | 0.0 | 0.0 | 0.00 | 0.00 | 0.00 | 86 | 1029.6 |
| 20260510075729 | 59 | 281 | 0.0 | 0.0 | 0.00 | 0.00 | 0.00 | 86 | 1029.3 |
| 20260510074226 | 60 | 276 | 0.0 | 0.0 | 0.00 | 0.00 | 0.00 | 84 | 1029.0 |
| 20260510072725 | 62 | 273 | 0.0 | 1.0 | 0.00 | 0.00 | 0.00 | 82 | 1028.9 |
| 20260510071221 | 62 | 275 | 1.0 | 2.0 | 0.00 | 0.00 | 0.00 | 82 | 1028.6 |
| 20260510065717 | 63 | 202 | 3.0 | 3.0 | 0.00 | 0.00 | 0.00 | 80 | 1028.5 |
| 20260510064214 | 64 | 258 | 2.0 | 2.0 | 0.00 | 0.00 | 0.00 | 80 | 1028.4 |
| 20260510062709 | 64 | 257 | 1.0 | 2.0 | 0.00 | 0.00 | 0.00 | 79 | 1028.1 |
| 20260510061210 | 64 | 214 | 1.0 | 1.0 | 0.00 | 0.00 | 0.00 | 78 | 1028.2 |
| 20260510002217 | 67 | 260 | 2.0 | 2.0 | 0.00 | 0.00 | 0.00 | 68 | 1028.0 |
| 20260510000713 | 67 | 260 | 2.0 | 2.0 | 0.00 | 0.00 | 0.00 | 68 | 1028.0 |
| 20260509235209 | 67 | 275 | 2.0 | 2.0 | 0.00 | 0.00 | 0.00 | 68 | 1027.9 |
| 20260509233707 | 66 | 205 | 3.0 | 3.0 | 0.00 | 0.00 | 0.00 | 71 | 1027.9 |
| 20260509232203 | 63 | 265 | 1.0 | 2.0 | 0.00 | 0.00 | 0.00 | 73 | 1028.0 |
| 20260509230700 | 62 | 193 | 2.0 | 2.0 | 0.00 | 0.00 | 0.00 | 76 | 1027.9 |
| 20260509225200 | 60 | 239 | 2.0 | 3.0 | 0.00 | 0.00 | 0.00 | 78 | 1028.0 |
| 20260509223656 | 59 | 260 | 2.0 | 2.0 | 0.00 | 0.00 | 0.00 | 80 | 1028.0 |
| 20260509222151 | 57 | 222 | 1.0 | 2.0 | 0.00 | 0.00 | 0.00 | 86 | 1027.8 |
| 20260509220651 | 55 | 206 | 3.0 | 3.0 | 0.00 | 0.00 | 0.00 | 86 | 1027.9 |
| 20260509215146 | 54 | 194 | 2.0 | 3.0 | 0.00 | 0.00 | 0.00 | 87 | 1027.5 |
| 20260509213643 | 52 | 196 | 2.0 | 2.0 | 0.00 | 0.00 | 0.00 | 89 | 1027.7 |
| 20260509212138 | 51 | 222 | 1.0 | 1.0 | 0.00 | 0.00 | 0.00 | 91 | 1027.2 |
| 20260509210634 | 50 | 223 | 1.0 | 1.0 | 0.00 | 0.00 | 0.00 | 92 | 1027.1 |
| 20260509205132 | 50 | 222 | 2.0 | 2.0 | 0.00 | 0.00 | 0.00 | 92 | 1026.9 |
| 20260509203632 | 50 | 229 | 1.0 | 1.0 | 0.00 | 0.00 | 0.00 | 91 | 1026.7 |
| 20260509202132 | 50 | 216 | 2.0 | 2.0 | 0.00 | 0.00 | 0.00 | 92 | 1026.5 |
| 20260509200632 | 50 | 238 | 2.0 | 2.0 | 0.00 | 0.00 | 0.00 | 92 | 1026.4 |
| 20260509195131 | 51 | 209 | 1.0 | 1.0 | 0.00 | 0.00 | 0.00 | 91 | 1026.4 |
| 20260509193629 | 50 | 222 | 0.0 | 0.0 | 0.00 | 0.00 | 0.00 | 92 | 1025.9 |
| 20260509192129 | 50 | 270 | 0.0 | 0.0 | 0.00 | 0.00 | 0.00 | 91 | 1025.8 |
| 20260509190628 | 51 | 239 | 1.0 | 1.0 | 0.00 | 0.00 | 0.00 | 91 | 1025.7 |
| 20260509185125 | 50 | 206 | 2.0 | 2.0 | 0.00 | 0.00 | 0.00 | 91 | 1025.5 |
| 20260509183622 | 51 | 212 | 1.0 | 2.0 | 0.00 | 0.00 | 0.00 | 91 | 1025.1 |
| 20260509182116 | 51 | 278 | 0.0 | 0.0 | 0.00 | 0.00 | 0.00 | 92 | 1025.1 |
| 20260509180614 | 49 | 197 | 2.0 | 2.0 | 0.00 | 0.00 | 0.00 | 93 | 1024.9 |
| 20260509175108 | 50 | 191 | 3.0 | 3.0 | 0.00 | 0.00 | 0.00 | 92 | 1024.8 |
| 20260509173607 | 50 | 230 | 1.0 | 1.0 | 0.00 | 0.00 | 0.00 | 93 | 1024.6 |
| 20260509172102 | 50 | 207 | 2.0 | 2.0 | 0.00 | 0.00 | 0.00 | 92 | 1024.9 |
| 20260509170556 | 51 | 219 | 2.0 | 2.0 | 0.00 | 0.00 | 0.00 | 90 | 1025.0 |
| 20260509165052 | 51 | 220 | 1.0 | 2.0 | 0.00 | 0.00 | 0.00 | 90 | 1024.7 |
| 20260509163548 | 52 | 247 | 2.0 | 2.0 | 0.00 | 0.00 | 0.00 | 90 | 1024.9 |
| 20260509162047 | 51 | 248 | 0.0 | 0.0 | 0.00 | 0.00 | 0.00 | 90 | 1024.9 |